Tracking 19644 objects as of 25-Apr-2019
HD Live streaming from Space Station
objects crossing your sky now

FLOCK 4A 13

Track FLOCK 4A 13 now!
10-day predictions
FLOCK 4A 13 is classified as:


NORAD ID: 44102
Int'l Code: 2019-018AA
Perigee: 498.2 km
Apogee: 514.4 km
Inclination: 97.5 °
Period: 94.6 minutes
Semi major axis: 6877 km
RCS: Unknown
Launch date: April 1, 2019
Source: United States (US)
Launch site: SRIHARIKOTA (SRI)
aabbcc
Your satellite tracking list
Your tracking list is empty




NASA's NSSDC Master Catalog

Two Line Element Set (TLE):
1 44102U 19018AA  19115.13490839  .00001029  00000-0  47818-4 0  9998
2 44102  97.4612 175.5109 0011736 207.2787 152.7834 15.22218069  3617
Source of the keplerian elements: AFSPC